Time,TemperatureF,DewpointF,PressureIn,WindDirection,WindDirectionDegrees,WindSpeedMPH,WindSpeedGustMPH,Humidity,HourlyPrecipIn,Conditions,Clouds,dailyrainin,SoftwareType,DateUTC
2013-02-06 00:10:00,43.6,43.0,30.13,SW,229,2.0,-999.0,96,-99.99,,,0.00,weatherlink.com 1.10,2013-02-06 06:10:00,
2013-02-06 00:25:00,43.3,42.0,30.13,SW,229,0.0,-999.0,96,-99.99,,,0.00,weatherlink.com 1.10,2013-02-06 06:25:00,
2013-02-06 00:40:00,43.3,42.0,30.14,SW,229,1.0,-999.0,96,-99.99,,,0.00,weatherlink.com 1.10,2013-02-06 06:40:00,
2013-02-06 00:55:00,43.0,42.0,30.14,SW,229,1.0,-999.0,96,-99.99,,,0.00,weatherlink.com 1.10,2013-02-06 06:55:00,
2013-02-06 01:10:00,42.8,42.0,30.14,SW,229,0.0,-999.0,96,-99.99,,,0.00,weatherlink.com 1.10,2013-02-06 07:10:00,
2013-02-06 01:25:00,42.0,41.0,30.14,SW,229,0.0,-999.0,96,-99.99,,,0.00,weatherlink.com 1.10,2013-02-06 07:25:00,
2013-02-06 01:40:00,40.7,40.0,30.14,SW,229,0.0,-999.0,96,-99.99,,,0.01,weatherlink.com 1.10,2013-02-06 07:40:00,
2013-02-06 01:55:00,40.5,40.0,30.14,SW,229,0.0,-999.0,96,-99.99,,,0.01,weatherlink.com 1.10,2013-02-06 07:55:00,
2013-02-06 02:10:00,40.6,40.0,30.15,SW,229,0.0,-999.0,96,-99.99,,,0.01,weatherlink.com 1.10,2013-02-06 08:10:00,
2013-02-06 02:25:00,40.4,39.0,30.15,SW,229,0.0,-999.0,96,-99.99,,,0.01,weatherlink.com 1.10,2013-02-06 08:25:00,
2013-02-06 02:40:00,40.2,39.0,30.15,SW,229,0.0,-999.0,96,-99.99,,,0.01,weatherlink.com 1.10,2013-02-06 08:40:00,
2013-02-06 02:55:00,40.0,39.0,30.15,SW,229,0.0,-999.0,96,-99.99,,,0.01,weatherlink.com 1.10,2013-02-06 08:55:00,
2013-02-06 03:10:00,39.8,39.0,30.15,SW,229,0.0,-999.0,97,-99.99,,,0.01,weatherlink.com 1.10,2013-02-06 09:10:00,
2013-02-06 03:25:00,39.5,39.0,30.16,SW,229,0.0,-999.0,96,-99.99,,,0.01,weatherlink.com 1.10,2013-02-06 09:25:00,
2013-02-06 03:40:00,39.6,39.0,30.16,SW,229,0.0,-999.0,97,-99.99,,,0.01,weatherlink.com 1.10,2013-02-06 09:40:00,
2013-02-06 03:55:00,39.8,39.0,30.17,SW,229,0.0,-999.0,97,-99.99,,,0.01,weatherlink.com 1.10,2013-02-06 09:55:00,
2013-02-06 04:10:00,39.6,39.0,30.18,SW,229,0.0,-999.0,97,-99.99,,,0.01,weatherlink.com 1.10,2013-02-06 10:10:00,
2013-02-06 04:25:00,38.9,38.0,30.17,WSW,244,1.0,-999.0,96,-99.99,,,0.01,weatherlink.com 1.10,2013-02-06 10:25:00,
2013-02-06 04:40:00,38.6,38.0,30.18,WNW,285,0.0,-999.0,96,-99.99,,,0.01,weatherlink.com 1.10,2013-02-06 10:40:00,
2013-02-06 04:55:00,38.4,38.0,30.18,WNW,285,0.0,-999.0,97,-99.99,,,0.01,weatherlink.com 1.10,2013-02-06 10:55:00,
2013-02-06 05:10:00,38.1,37.0,30.19,WNW,285,0.0,-999.0,96,-99.99,,,0.01,weatherlink.com 1.10,2013-02-06 11:10:00,
2013-02-06 05:25:00,37.9,37.0,30.20,WNW,285,0.0,-999.0,97,-99.99,,,0.01,weatherlink.com 1.10,2013-02-06 11:25:00,
2013-02-06 05:40:00,37.5,37.0,30.20,WNW,285,0.0,-999.0,96,-99.99,,,0.01,weatherlink.com 1.10,2013-02-06 11:40:00,
2013-02-06 05:55:00,37.4,37.0,30.20,WNW,285,0.0,-999.0,97,-99.99,,,0.01,weatherlink.com 1.10,2013-02-06 11:55:00,
2013-02-06 06:10:00,37.2,37.0,30.21,WNW,285,0.0,-999.0,97,-99.99,,,0.01,weatherlink.com 1.10,2013-02-06 12:10:00,
2013-02-06 06:25:00,36.9,36.0,30.22,WNW,285,0.0,-999.0,96,-99.99,,,0.01,weatherlink.com 1.10,2013-02-06 12:25:00,
2013-02-06 06:40:00,36.9,36.0,30.22,WNW,285,0.0,-999.0,97,-99.99,,,0.01,weatherlink.com 1.10,2013-02-06 12:40:00,
2013-02-06 06:55:00,36.9,36.0,30.23,WNW,285,0.0,-999.0,97,-99.99,,,0.01,weatherlink.com 1.10,2013-02-06 12:55:00,
2013-02-06 07:10:00,36.7,36.0,30.23,NNW,348,0.0,-999.0,97,-99.99,,,0.01,weatherlink.com 1.10,2013-02-06 13:10:00,
2013-02-06 07:25:00,36.9,36.0,30.24,NNW,348,0.0,-999.0,97,-99.99,,,0.01,weatherlink.com 1.10,2013-02-06 13:25:00,
2013-02-06 07:41:00,36.9,36.0,30.24,NNW,348,1.0,-999.0,97,-99.99,,,0.01,weatherlink.com 1.10,2013-02-06 13:41:00,
2013-02-06 07:56:00,37.3,37.0,30.25,NNW,346,0.0,-999.0,97,-99.99,,,0.01,weatherlink.com 1.10,2013-02-06 13:56:00,
2013-02-06 08:11:00,38.0,37.0,30.25,NNW,346,0.0,-999.0,97,-99.99,,,0.01,weatherlink.com 1.10,2013-02-06 14:11:00,
2013-02-06 08:26:00,39.0,38.0,30.25,NNW,347,0.0,-999.0,97,-99.99,,,0.01,weatherlink.com 1.10,2013-02-06 14:26:00,
2013-02-06 08:41:00,40.6,40.0,30.25,NNW,347,0.0,-999.0,97,-99.99,,,0.01,weatherlink.com 1.10,2013-02-06 14:41:00,
2013-02-06 08:56:00,42.7,42.0,30.25,North,350,2.0,-999.0,97,-99.99,,,0.01,weatherlink.com 1.10,2013-02-06 14:56:00,
2013-02-06 09:11:00,44.8,44.0,30.25,North,355,0.0,-999.0,97,-99.99,,,0.01,weatherlink.com 1.10,2013-02-06 15:11:00,
2013-02-06 09:26:00,46.3,46.0,30.25,North,355,0.0,-999.0,97,-99.99,,,0.01,weatherlink.com 1.10,2013-02-06 15:26:00,
2013-02-06 09:41:00,47.9,47.0,30.26,North,355,0.0,-999.0,97,-99.99,,,0.01,weatherlink.com 1.10,2013-02-06 15:41:00,
2013-02-06 09:56:00,48.6,48.0,30.26,North,355,2.0,-999.0,97,-99.99,,,0.01,weatherlink.com 1.10,2013-02-06 15:56:00,
2013-02-06 10:11:00,49.7,49.0,30.26,NE,42,1.0,-999.0,97,-99.99,,,0.01,weatherlink.com 1.10,2013-02-06 16:11:00,
2013-02-06 10:26:00,53.0,48.0,30.26,SSE,147,1.0,-999.0,83,-99.99,,,0.01,weatherlink.com 1.10,2013-02-06 16:26:00,
2013-02-06 10:41:00,55.2,44.0,30.26,ESE,121,2.0,-999.0,66,-99.99,,,0.01,weatherlink.com 1.10,2013-02-06 16:41:00,
2013-02-06 10:56:00,56.1,42.0,30.26,ENE,77,2.0,-999.0,59,-99.99,,,0.01,weatherlink.com 1.10,2013-02-06 16:56:00,
2013-02-06 11:11:00,57.6,40.0,30.26,SSE,155,0.0,-999.0,52,-99.99,,,0.01,weatherlink.com 1.10,2013-02-06 17:11:00,
2013-02-06 12:30:00,60.9,39.0,30.23,WNW,302,3.0,-999.0,44,-99.99,,,0.01,weatherlink.com 1.10,2013-02-06 18:30:00,
2013-02-06 13:03:00,62.1,38.0,30.21,ENE,69,1.0,-999.0,41,-99.99,,,0.00,weatherlink.com 1.10,2013-02-06 19:03:00,
2013-02-06 13:11:00,62.0,38.0,30.21,East,97,1.0,-999.0,41,-99.99,,,0.00,weatherlink.com 1.10,2013-02-06 19:11:00,
2013-02-06 13:27:00,62.5,38.0,30.20,NE,47,0.0,-999.0,40,-99.99,,,0.00,weatherlink.com 1.10,2013-02-06 19:27:00,
2013-02-06 13:41:00,62.5,38.0,30.21,ESE,103,0.0,-999.0,40,-99.99,,,0.00,weatherlink.com 1.10,2013-02-06 19:41:00,
2013-02-06 13:57:00,62.5,38.0,30.20,ESE,113,4.0,-999.0,40,-99.99,,,0.00,weatherlink.com 1.10,2013-02-06 19:57:00,
2013-02-06 14:11:00,63.2,38.0,30.20,ESE,123,2.0,-999.0,40,-99.99,,,0.00,weatherlink.com 1.10,2013-02-06 20:11:00,
2013-02-06 14:26:00,63.9,42.0,30.20,NNW,332,4.0,-999.0,45,-99.99,,,0.00,weatherlink.com 1.10,2013-02-06 20:26:00,
2013-02-06 14:41:00,63.0,42.0,30.19,NNW,338,4.0,-999.0,47,-99.99,,,0.00,weatherlink.com 1.10,2013-02-06 20:41:00,
2013-02-06 14:56:00,63.1,42.0,30.18,NE,51,10.0,-999.0,46,-99.99,,,0.00,weatherlink.com 1.10,2013-02-06 20:56:00,
2013-02-06 15:11:00,62.9,41.0,30.18,NNE,30,2.0,-999.0,45,-99.99,,,0.00,weatherlink.com 1.10,2013-02-06 21:11:00,
2013-02-06 15:26:00,62.9,40.0,30.18,North,351,5.0,-999.0,44,-99.99,,,0.00,weatherlink.com 1.10,2013-02-06 21:26:00,
2013-02-06 15:41:00,62.1,40.0,30.18,North,355,3.0,-999.0,44,-99.99,,,0.00,weatherlink.com 1.10,2013-02-06 21:41:00,
2013-02-06 15:57:00,62.3,40.0,30.18,North,360,0.0,-999.0,44,-99.99,,,0.00,weatherlink.com 1.10,2013-02-06 21:57:00,
2013-02-06 16:12:00,61.9,38.0,30.17,NNW,340,1.0,-999.0,42,-99.99,,,0.00,weatherlink.com 1.10,2013-02-06 22:12:00,
2013-02-06 16:27:00,61.1,38.0,30.18,NNW,338,1.0,-999.0,42,-99.99,,,0.00,weatherlink.com 1.10,2013-02-06 22:27:00,
2013-02-06 16:42:00,60.9,38.0,30.19,NW,323,0.0,-999.0,43,-99.99,,,0.00,weatherlink.com 1.10,2013-02-06 22:42:00,
2013-02-06 16:57:00,60.5,39.0,30.19,NW,321,0.0,-999.0,46,-99.99,,,0.00,weatherlink.com 1.10,2013-02-06 22:57:00,
2013-02-06 17:12:00,59.5,39.0,30.17,NW,322,2.0,-999.0,46,-99.99,,,0.00,weatherlink.com 1.10,2013-02-06 23:12:00,
2013-02-06 17:27:00,58.3,37.0,30.16,NW,322,0.0,-999.0,46,-99.99,,,0.00,weatherlink.com 1.10,2013-02-06 23:27:00,
2013-02-06 17:42:00,57.7,37.0,30.16,NW,322,0.0,-999.0,47,-99.99,,,0.00,weatherlink.com 1.10,2013-02-06 23:42:00,
2013-02-06 17:57:00,57.3,37.0,30.17,NW,322,0.0,-999.0,47,-99.99,,,0.00,weatherlink.com 1.10,2013-02-06 23:57:00,
2013-02-06 18:12:00,56.4,38.0,30.19,NW,322,0.0,-999.0,50,-99.99,,,0.00,weatherlink.com 1.10,2013-02-07 00:12:00,
2013-02-06 18:27:00,55.3,37.0,30.18,NW,322,0.0,-999.0,50,-99.99,,,0.00,weatherlink.com 1.10,2013-02-07 00:27:00,
2013-02-06 18:42:00,54.2,38.0,30.19,East,85,0.0,-999.0,54,-99.99,,,0.00,weatherlink.com 1.10,2013-02-07 00:42:00,
2013-02-06 18:57:00,54.4,37.0,30.20,East,85,0.0,-999.0,52,-99.99,,,0.00,weatherlink.com 1.10,2013-02-07 00:57:00,
2013-02-06 19:12:00,54.5,37.0,30.20,East,85,0.0,-999.0,52,-99.99,,,0.00,weatherlink.com 1.10,2013-02-07 01:12:00,
2013-02-06 19:27:00,54.6,37.0,30.20,East,85,0.0,-999.0,52,-99.99,,,0.00,weatherlink.com 1.10,2013-02-07 01:27:00,
2013-02-06 19:42:00,53.7,38.0,30.19,East,85,0.0,-999.0,55,-99.99,,,0.00,weatherlink.com 1.10,2013-02-07 01:42:00,
2013-02-06 19:57:00,51.6,38.0,30.19,ENE,70,1.0,-999.0,61,-99.99,,,0.00,weatherlink.com 1.10,2013-02-07 01:57:00,
2013-02-06 20:12:00,51.3,39.0,30.19,ENE,71,0.0,-999.0,63,-99.99,,,0.00,weatherlink.com 1.10,2013-02-07 02:12:00,
2013-02-06 20:27:00,52.0,39.0,30.20,ENE,71,0.0,-999.0,62,-99.99,,,0.00,weatherlink.com 1.10,2013-02-07 02:27:00,
2013-02-06 20:42:00,52.2,38.0,30.19,ENE,71,0.0,-999.0,59,-99.99,,,0.00,weatherlink.com 1.10,2013-02-07 02:42:00,
2013-02-06 20:57:00,52.0,38.0,30.20,ENE,71,0.0,-999.0,59,-99.99,,,0.00,weatherlink.com 1.10,2013-02-07 02:57:00,
2013-02-06 21:12:00,51.3,38.0,30.19,ENE,71,0.0,-999.0,61,-99.99,,,0.00,weatherlink.com 1.10,2013-02-07 03:12:00,
2013-02-06 21:27:00,49.9,39.0,30.19,ENE,71,0.0,-999.0,66,-99.99,,,0.00,weatherlink.com 1.10,2013-02-07 03:27:00,
2013-02-06 21:42:00,49.9,39.0,30.19,ENE,71,3.0,-999.0,66,-99.99,,,0.00,weatherlink.com 1.10,2013-02-07 03:42:00,
2013-02-06 21:58:00,50.0,38.0,30.18,ENE,71,4.0,-999.0,63,-99.99,,,0.00,weatherlink.com 1.10,2013-02-07 03:58:00,
2013-02-06 22:12:00,51.0,38.0,30.18,ENE,74,2.0,-999.0,62,-99.99,,,0.00,weatherlink.com 1.10,2013-02-07 04:12:00,
2013-02-06 22:28:00,50.0,39.0,30.18,ENE,72,2.0,-999.0,65,-99.99,,,0.00,weatherlink.com 1.10,2013-02-07 04:28:00,
2013-02-06 22:42:00,50.4,38.0,30.17,East,88,1.0,-999.0,63,-99.99,,,0.00,weatherlink.com 1.10,2013-02-07 04:42:00,
2013-02-06 22:57:00,50.2,38.0,30.17,ENE,72,3.0,-999.0,63,-99.99,,,0.00,weatherlink.com 1.10,2013-02-07 04:57:00,
2013-02-06 23:14:00,50.2,38.0,30.17,East,80,2.0,-999.0,63,-99.99,,,0.00,weatherlink.com 1.10,2013-02-07 05:14:00,
2013-02-06 23:27:00,50.8,38.0,30.17,East,82,1.0,-999.0,62,-99.99,,,0.00,weatherlink.com 1.10,2013-02-07 05:27:00,
2013-02-06 23:43:00,51.0,38.0,30.16,ENE,77,5.0,-999.0,62,-99.99,,,0.00,weatherlink.com 1.10,2013-02-07 05:43:00,
2013-02-06 23:58:00,51.0,38.0,30.16,East,85,2.0,-999.0,62,-99.99,,,0.00,weatherlink.com 1.10,2013-02-07 05:58:00,